Regional Weather Roundup
Issued by NWS

Home | Current Version | Previous Version | Text Only | Print | Product List | Glossary Off
Versions: 1 2 3 4 5 6 7 8 9 10 11 12 13 14 15 16 17 18 19 20 21 22 23 24 25 26 27 28 29 30 31 32 33 34 35 36 37 38 39 40 41 42 43 44 45 46 47 48 49 50

000
ASUS43 KFSD 011702
RWRSD

WEATHER ROUNDUP FOR SOUTH DAKOTA
NATIONAL WEATHER SERVICE SIOUX FALLS SD
1200 PM CDT FRI AUG 01 2014

NOTE: "FAIR" INDICATES FEW OR NO CLOUDS BELOW 12,000 FEET WITH NO
SIGNIFICANT WEATHER AND/OR OBSTRUCTIONS TO VISIBILITY.


SDZ001>005-009-010-012>017-011800-
NORTHWEST AND NORTH CENTRAL SOUTH DAKOTA

CITY           SKY/WX    TMP DP  RH WIND       PRES   REMARKS
BUFFALO          N/A     80  48  32 W3        30.02S
FAITH            N/A     83  54  36 S8        30.07S
MOBRIDGE       SUNNY     82  64  54 SE14      30.05S
$$

SDZ012>016-024>037-041>051-057-063-072>074-011800-
SOUTHWEST AND SOUTH CENTRAL SOUTH DAKOTA

CITY           SKY/WX    TMP DP  RH WIND       PRES   REMARKS
RAPID CTY ARPT SUNNY     85  54  34 SE7       30.10S
PIERRE         SUNNY     86  59  39 SE14      30.05S
CUSTER         SUNNY     80  43  26 W8        30.27S
ELLSWORTH AFB  SUNNY     86  48  26 E5        30.10S
PHILIP         SUNNY     88  49  25 SE6       30.06F
PINE RIDGE     SUNNY     85  52  32 W9        30.14S
WINNER         FAIR      86  55  34 S10       30.10F
$$

SDZ004>011-016>023-039-040-011800-
NORTHEAST SOUTH DAKOTA

CITY           SKY/WX    TMP DP  RH WIND       PRES   REMARKS
ABERDEEN       SUNNY     79  57  46 SW6       30.09S
WATERTOWN      SUNNY     78  56  46 VRB3      30.11S
SISSETON         N/A     81  61  50 N6        30.08S
$$

SDZ017-020-022-023-036>040-048>070-011800-
SOUTHEAST SOUTH DAKOTA

CITY           SKY/WX    TMP DP  RH WIND       PRES   REMARKS
SIOUX FALLS    MOSUNNY   79  60  52 CALM      30.12S
HURON          SUNNY     79  61  53 CALM      30.09F
CHAMBERLAIN    SUNNY     81  59  46 S8        30.10S
MITCHELL       SUNNY     78  62  57 VRB5      30.11S
YANKTON        SUNNY     75  63  64 CALM      30.13R
$$

ABBREVIATIONS USED IN REMARKS
   TC - TEMPERATURE IN CELSIUS
  WCI - WIND CHILL INDEX
   HX - HEAT INDEX
  VSB - VISIBILITY



USA.gov is the U.S. government's official web portal to all federal, state and local government web resources and services.